Погода Троицко-Печерск

Погода Троицко-Печерск : погода сейчас, прогноз погоды и архив. Всё, что Вы хотите узнать о погоде Троицко-Печерск!

Хотите узнать прогноз погоды Троицко-Печерск? Тогда Вам сюда: Погода Троицко-Печерск

Поиск расширенной информации на нашем сайте:

Другие новости

Новости СМИ2

Главная страница сайта

Новости сайта

03.07.2017

Напоминаем, что на нашем специализированном сайте Метеоцентр.Азия вы можете получить высокодетализированные автоматические прогнозы погоды по пунктам России, СНГ и мира в авиационном формате (включающие направление и скорость ветра, видимость, явления погоды, количество и форму облачности, нижнюю и верхнюю границу облачности).


Погода Троицко-Печерск - сегодня

Время (UTC), дата Ветер
(°,м/с) 
Видим.   Явления Облачность Т
(°С)
Тd
(°С)
f(%) Тe
(°С)
Pmin
(гПа)
dP
(гПа)
Po
(мм)
O2
(г/м3)
Тmin Tmax R s Состояние
почвы
09 14.10.18 330 (СЗ) 20000 м    9/6 1000 м средняя 
[Sc|Ac As]
+1.9 -4.7 62 1017.9  1.3  751  301           
12 14.10.18 310 (СЗ) 20000 м    10/10 900 м 
[Sc]
+1.4 -5.2 61 +1  1018.4  0.4  751  302           
15 14.10.18 290 (З) 20000 м    10/10 1050 м 
[Sc]
+0.5 -4.7 68 +1  1019.4  0.9  752  303    +2.2       
18 14.10.18 270 (З) 20000 м    8/4 1000 м средняя, верхняя 
[Sc|Ac trans|Ci fib]
-1.2 -4.4 79 -1  1019.2  -0.3  751  305           
21 14.10.18 250 (З) 20000 м    10/0 средняя, верхняя 
[As op|Ci fib]
-1.2 -3.8 82 -1  1019.4  0.3  752  305           
00 15.10.18 230 (ЮЗ) 20000 м    10/0 средняя 
[As op]
-1.1 -3.7 82 -1  1019.2  -0.2  752  304           
03 15.10.18 200 (Ю) 10 км  слаб. снег  10/0 средняя 
[As op]
-1.2 -3.2 86 -1  1019.1  -0.1  751  304  -1.7    0.0  <0.5  равномерный
сухой снег
100% 
09 15.10.18 180 (Ю) 20000 м    10/5 600 м кучево-дожд., средняя 
[Cb cap|Ac und]
+1.2 -1.8 80 1017  -0.9  750  301           
12 15.10.18 180 (Ю) 20000 м  {ливн. осадки}  10/6 660 м кучево-дожд., средняя 
[Cb cap|Ac und]
+0.9 -1.4 85 -1  1015.7  -1.3  749  301           
15 15.10.18 170 (Ю) 10 км  слаб. ливневой снег  10/10 420 м кучево-дожд. 
[Cb cap]
+0.1 -0.8 94 -2  1014.1  -1.6  748  301    +1.6     
21 15.10.18 200 (Ю) 10 км  слаб. дождь{ливн. осадки}  10/10 330 м 
[Sc diur, vesp]
+0.4 -0.4 94 -2  1010.4  -1.4  745  300           
03 16.10.18 220 (ЮЗ) 4000 м  слаб. дождь  10/10 300 м 
[Frnb]
+1.4 +0.6 94 +1  1007.2  -0.9  743  298  +0.1       
09 16.10.18 280 (З) 4000 м  дымка{дождь}  10/8 450 м средняя 
[Sc|Ac As]
+6.9 +6 94 +7  1008.1  1.2  744  291           
12 16.10.18 320 (СЗ) 20000 м  {дождь}  8/8 420 м 
[Sc]
+7.6 +6.2 91 +9  1008.8  0.7  744  291           
03 17.10.18 330 (СЗ) 5-11{16}  10 км  слаб. ливневой снег  10/10 420 м кучево-дожд. 
[Cb cap]
+1 -0.1 92 -2  998.8  6.3  737  296  +1       
15 17.10.18 310 (СЗ) 4-12{12}  20000 м  {ливн. осадки}  10/10 840 м кучево-дожд. 
[Cb cap]
+4.6 +2.3 85 +3  1012.2  1.9  747  295    +4.7     
21 17.10.18 310 (СЗ) 10 км  слаб. ливневой дождь  10/10 420 м кучево-дожд. 
[Cb cap]
+3.5 +2.2 91 +2  1044.3  748  297           
03 18.10.18 340 (С) 10 км  слаб. дождь{ливн. осадки}  10/10 300 м 
[Frnb]
+2.2 +1.2 93 +3  1016.7  0.6  750  299  +2.2       
06 18.10.18 140 (ЮВ) 10 км  слаб. дождь{ливн. осадки}  10/10 330 м 
[Frnb]
+2.1 +1.2 94 +3  1016.6  0.1  750  300  +2.1         
15 18.10.18 180 (Ю) 10 км  слаб. дождь  10/10 360 м 
[Frnb]
+1.8 +0.7 92 1008.7  -3.3  744  298    +3.4     
03 19.10.18 тихо ()   4000 м  слаб. ливневой дождь  10/8 450 м кучево-дожд., средняя 
[Cb cap|As op]
+4.4 +3.7 95 +4  1002.1  -0.4  739  293  +0.4       
12 19.10.18 200 (Ю) 10 км  слаб. ливневой дождь  10/10 360 м кучево-дожд. 
[Cb cap]
+7.9 +7.2 95 +7  993.9  -3.8  733  286           
15 19.10.18 210 (ЮЗ) 20000 м  в посл. час дождь{ливн. осадки}  10/10 600 м 
[Sc diur, vesp]
+8.3 +7.1 92 +8  992.8  -1.1  732  285    +8.5     
18 19.10.18 230 (ЮЗ) 10 км  слаб. дождь{ливн. осадки}  10/10 360 м 
[Frnb]
+5.3 +4.2 93 +5  992.9  0.1  732  289           
21 19.10.18 310 (СЗ) 10 км  слаб. снег{дождь}  10/10 330 м 
[Frnb]
+0.8 -0.3 92 -1  996.1  2.8  735  295           
Время (UTC), дата Ветер
(°,м/с) 
Видим.   Явления Облачность Т
(°С)
Тd
(°С)
f(%) Тe
(°С)
Pmin
(гПа)
dP
(гПа)
Po
(мм)
O2
(г/м3)
Тmin Tmax R s Состояние
почвы

Для получения пояснительной информации подведите курсор к названию столбца.

ПОГОДА Троицко-Печерск - архив

Всё, что Вы хотите узнать о погоде Троицко-Печерск - удобно и подробно!

Выберите нужную дату (начиная с 1 января 2015* года) и нажмите кнопку "Найти".
Будут отображены архивные сводки погоды по пункту Троицко-Печерск, начиная с указанной даты.


Отображать данные в формате CSV (для использования в таблицах Excel)


Внимание! Наш архив погоды предназначен исключительно для личного некоммерческого использования в познавательных целях. Если Вам необходимы официальные справки о состоянии погоды (для производственных, юридических, коммерческих и т.п. целей), обращайтесь в органы Росгидромета.

*Примечание: данная дата относится к архиву по метеостанциям СССР (Россия, СНГ, Балтия).
Архив по метеостанциям Зарубежной Европы и Азии (кроме Китая) хранится 10 дней, по другим регионам земного шара (Китай, Африка, Америка, Австралия, Океания) - 1 день.

Троицко-Печерск - район местоположения метеостанции


Название, широта, долгота, высота метеостанции:
Троицко-Печерск 62.7°ш. 56.2°д. 139 м над ур. моря [Российская Федерация]

Дополнительная информация

В oтличие oт бoльшинства пoгoдных сайтoв мы публикуем пoдрoбную метеoинфoрмацию в детальнoм прoфессиoнальнoм фoрмате.

Характеристики температуры и влажнoсти вoздуха измеряются на высoте 2 м в тени вдали oт зданий и деревьев.
Скoрoсть ветра измеряется на высoте 10 м (на урoвне рoста челoвека скoрoсть ветра ниже в 1.5-2 раза). Если метеoстанция нахoдится в гoрoде или в лесу, тo скoрoсть ветра занижена на 2-4 м/с пo сравнению с oткрытым местoм. Скoрoсть ветра над акватoриями крупных рек и oзёр, а также на вершинах хoлмoв на 2-5 м/с выше, чем в oбычных услoвиях.
Атмoсфернoе давление в разных тoчках местнoсти мoжет значительнo oтличаться oт давления на метеoстанции, в зависимoсти oт услoвий рельефа (при пoдъёме на 10 м давление пoнижается примернo на 1 мм рт.ст.).